• Em Portugal
  • Lista de países
  • Para 7 dias
  • Temperatura da água
  • Mapas de satélite
  • Mapa do tempo
  • Widgets de tempo
  • user-avatar
    Iniciar Sessão

    Previsão horária em Luanda

    Hoje, 15 Dezembro, Sexta-feira

    Tempo Temperatura Precipitação Vento Pressão Humidade
    00:00 +28°C° 0 mm 3 m/s 753 mmHg 83%
    01:00 +27°C° 0 mm 2 m/s 753 mmHg 84%
    02:00 +27°C° 0 mm 2 m/s 753 mmHg 85%
    03:00 +27°C° 0 mm 2 m/s 753 mmHg 86%
    04:00 +27°C° 0 mm 3 m/s 753 mmHg 86%
    05:00 +27°C° 0 mm 3 m/s 753 mmHg 85%
    06:00 +27°C° 0 mm 3 m/s 753 mmHg 83%
    07:00 +28°C° 0 mm 2 m/s 754 mmHg 79%
    08:00 +30°C° 0 mm 2 m/s 754 mmHg 70%
    09:00 +32°C° 0 mm 2 m/s 754 mmHg 60%
    10:00 +36°C° 0 mm 2 m/s 754 mmHg 50%
    11:00 +36°C° 0 mm 3 m/s 753 mmHg 47%
    12:00 +37°C° 0 mm 4 m/s 752 mmHg 44%
    13:00 +39°C° 0 mm 5 m/s 751 mmHg 42%
    14:00 +37°C° 0 mm 5 m/s 751 mmHg 45%
    15:00 +36°C° 0 mm 5 m/s 750 mmHg 49%
    16:00 +35°C° 0 mm 6 m/s 750 mmHg 52%
    17:00 +33°C° 0 mm 5 m/s 750 mmHg 59%
    18:00 +32°C° 0 mm 5 m/s 751 mmHg 67%
    19:00 +29°C° 0 mm 5 m/s 751 mmHg 74%
    20:00 +29°C° 0 mm 4 m/s 752 mmHg 76%
    21:00 +28°C° 0 mm 3 m/s 753 mmHg 78%
    22:00 +28°C° 0 mm 3 m/s 753 mmHg 80%
    23:00 +28°C° 0 mm 2 m/s 753 mmHg 81%

    Amanhã, 16 Dezembro, Sábado

    Tempo Temperatura Precipitação Vento Pressão Humidade
    00:00 +28°C° 0 mm 2 m/s 753 mmHg 81%
    01:00 +28°C° 0 mm 2 m/s 753 mmHg 82%
    02:00 +28°C° 0,1 mm 2 m/s 753 mmHg 83%
    03:00 +27°C° 0,1 mm 2 m/s 752 mmHg 84%
    04:00 +27°C° 0,1 mm 2 m/s 752 mmHg 85%
    05:00 +27°C° 0,2 mm 3 m/s 753 mmHg 86%
    06:00 +27°C° 0,2 mm 3 m/s 753 mmHg 87%
    07:00 +27°C° 0,2 mm 3 m/s 753 mmHg 88%
    08:00 +27°C° 1,4 mm 2 m/s 754 mmHg 88%
    09:00 +27°C° 1,4 mm 2 m/s 754 mmHg 89%
    10:00 +27°C° 1,4 mm 2 m/s 754 mmHg 90%
    11:00 +27°C° 0,7 mm 2 m/s 754 mmHg 86%
    12:00 +28°C° 0,7 mm 2 m/s 753 mmHg 82%
    13:00 +29°C° 0,7 mm 3 m/s 752 mmHg 77%
    14:00 +29°C° 0,1 mm 2 m/s 752 mmHg 73%
    15:00 +30°C° 0,1 mm 2 m/s 751 mmHg 69%
    16:00 +30°C° 0,1 mm 2 m/s 751 mmHg 65%
    17:00 +30°C° 0 mm 2 m/s 751 mmHg 69%
    18:00 +29°C° 0 mm 2 m/s 752 mmHg 73%
    19:00 +28°C° 0 mm 2 m/s 752 mmHg 77%
    20:00 +28°C° 0 mm 2 m/s 753 mmHg 78%
    21:00 +27°C° 0 mm 2 m/s 753 mmHg 80%
    22:00 +27°C° 0 mm 3 m/s 754 mmHg 82%
    23:00 +27°C° 0 mm 3 m/s 754 mmHg 83%

    Depois de amanhã, 17 Dezembro, Domingo

    Tempo Temperatura Precipitação Vento Pressão Humidade
    00:00 +27°C° 0 mm 3 m/s 753 mmHg 85%
    01:00 +26°C° 0 mm 3 m/s 753 mmHg 86%
    02:00 +26°C° 0 mm 3 m/s 753 mmHg 87%
    03:00 +26°C° 0 mm 3 m/s 753 mmHg 87%
    04:00 +26°C° 0 mm 3 m/s 752 mmHg 88%
    05:00 +26°C° 0 mm 2 m/s 753 mmHg 87%
    06:00 +27°C° 0 mm 2 m/s 753 mmHg 86%
    07:00 +27°C° 0 mm 2 m/s 754 mmHg 85%
    08:00 +29°C° 0,1 mm 2 m/s 754 mmHg 77%
    09:00 +30°C° 0,1 mm 2 m/s 754 mmHg 70%
    10:00 +32°C° 0,1 mm 2 m/s 755 mmHg 62%
    11:00 +32°C° 0 mm 2 m/s 754 mmHg 62%
    12:00 +33°C° 0 mm 3 m/s 753 mmHg 61%
    13:00 +33°C° 0 mm 3 m/s 753 mmHg 61%
    14:00 +33°C° 0 mm 4 m/s 752 mmHg 63%
    15:00 +32°C° 0 mm 4 m/s 751 mmHg 65%
    16:00 +32°C° 0 mm 5 m/s 751 mmHg 67%
    17:00 +30°C° 0 mm 5 m/s 751 mmHg 71%
    18:00 +29°C° 0 mm 5 m/s 752 mmHg 75%
    19:00 +28°C° 0 mm 4 m/s 752 mmHg 79%
    20:00 +28°C° 0 mm 4 m/s 753 mmHg 80%
    21:00 +28°C° 0 mm 3 m/s 753 mmHg 81%
    22:00 +27°C° 0 mm 3 m/s 754 mmHg 82%
    23:00 +27°C° 0,1 mm 3 m/s 754 mmHg 83%

    18 Dezembro, Segunda-feira

    Tempo Temperatura Precipitação Vento Pressão Humidade
    00:00 +27°C° 0,1 mm 3 m/s 753 mmHg 84%
    01:00 +27°C° 0,1 mm 3 m/s 753 mmHg 85%
    02:00 +27°C° 0 mm 2 m/s 753 mmHg 86%
    03:00 +26°C° 0 mm 2 m/s 752 mmHg 87%
    04:00 +26°C° 0 mm 2 m/s 752 mmHg 88%
    05:00 +26°C° 0 mm 2 m/s 753 mmHg 87%
    06:00 +27°C° 0 mm 2 m/s 753 mmHg 85%
    07:00 +27°C° 0 mm 2 m/s 753 mmHg 84%
    08:00 +28°C° 0,1 mm 2 m/s 754 mmHg 78%
    09:00 +29°C° 0,1 mm 2 m/s 754 mmHg 72%
    10:00 +30°C° 0,1 mm 1 m/s 754 mmHg 67%
    11:00 +31°C° 0 mm 2 m/s 753 mmHg 65%
    12:00 +31°C° 0 mm 2 m/s 753 mmHg 63%
    13:00 +33°C° 0 mm 3 m/s 752 mmHg 61%
    14:00 +33°C° 0 mm 3 m/s 752 mmHg 62%
    15:00 +31°C° 0 mm 3 m/s 751 mmHg 62%
    16:00 +32°C° 0 mm 4 m/s 751 mmHg 63%
    17:00 +30°C° 0 mm 4 m/s 751 mmHg 68%
    18:00 +29°C° 0 mm 4 m/s 752 mmHg 73%
    19:00 +28°C° 0 mm 3 m/s 752 mmHg 78%
    20:00 +28°C° 0 mm 3 m/s 752 mmHg 80%
    21:00 +27°C° 0 mm 3 m/s 753 mmHg 82%
    22:00 +27°C° 0 mm 3 m/s 753 mmHg 84%
    23:00 +26°C° 0 mm 3 m/s 753 mmHg 85%

    19 Dezembro, Terça-feira

    Tempo Temperatura Precipitação Vento Pressão Humidade
    00:00 +26°C° 0 mm 2 m/s 753 mmHg 86%
    01:00 +26°C° 0 mm 2 m/s 752 mmHg 87%
    02:00 +26°C° 0 mm 2 m/s 752 mmHg 88%
    03:00 +26°C° 0 mm 2 m/s 752 mmHg 89%
    04:00 +25°C° 0 mm 2 m/s 752 mmHg 89%
    05:00 +26°C° 0 mm 2 m/s 752 mmHg 87%
    06:00 +26°C° 0 mm 1 m/s 753 mmHg 85%
    07:00 +27°C° 0 mm 1 m/s 753 mmHg 83%
    08:00 +28°C° 0 mm 1 m/s 753 mmHg 76%
    09:00 +29°C° 0 mm 2 m/s 753 mmHg 69%
    10:00 +31°C° 0 mm 2 m/s 754 mmHg 62%
    11:00 +31°C° 0 mm 2 m/s 753 mmHg 61%
    12:00 +31°C° 0 mm 3 m/s 752 mmHg 61%
    13:00 +31°C° 0 mm 3 m/s 752 mmHg 60%
    14:00 +31°C° 0 mm 3 m/s 751 mmHg 59%
    15:00 +31°C° 0 mm 3 m/s 751 mmHg 59%
    16:00 +32°C° 0 mm 4 m/s 750 mmHg 59%
    17:00 +30°C° 0 mm 4 m/s 751 mmHg 65%
    18:00 +29°C° 0 mm 3 m/s 752 mmHg 70%
    19:00 +27°C° 0 mm 3 m/s 752 mmHg 76%
    20:00 +27°C° 0 mm 3 m/s 753 mmHg 79%
    21:00 +27°C° 0 mm 3 m/s 753 mmHg 81%
    22:00 +26°C° 0 mm 3 m/s 753 mmHg 84%
    23:00 +26°C° 0 mm 3 m/s 753 mmHg 84%

    20 Dezembro, Quarta-feira

    Tempo Temperatura Precipitação Vento Pressão Humidade
    00:00 +26°C° 0 mm 2 m/s 753 mmHg 85%
    01:00 +26°C° 0 mm 2 m/s 752 mmHg 86%
    02:00 +26°C° 0 mm 2 m/s 752 mmHg 87%
    03:00 +25°C° 0 mm 2 m/s 752 mmHg 89%
    04:00 +25°C° 0 mm 2 m/s 752 mmHg 90%
    05:00 +25°C° 0 mm 2 m/s 753 mmHg 88%
    06:00 +26°C° 0 mm 2 m/s 753 mmHg 86%
    07:00 +26°C° 0 mm 2 m/s 753 mmHg 84%
    08:00 +27°C° 0 mm 2 m/s 754 mmHg 78%
    09:00 +29°C° 0 mm 2 m/s 754 mmHg 71%
    10:00 +30°C° 0 mm 2 m/s 754 mmHg 65%
    11:00 +30°C° 0 mm 2 m/s 753 mmHg 63%
    12:00 +31°C° 0 mm 2 m/s 753 mmHg 62%
    13:00 +31°C° 0 mm 3 m/s 752 mmHg 60%
    14:00 +31°C° 0 mm 3 m/s 752 mmHg 59%
    15:00 +33°C° 0 mm 4 m/s 751 mmHg 58%
    16:00 +33°C° 0 mm 4 m/s 751 mmHg 57%
    17:00 +30°C° 0 mm 4 m/s 752 mmHg 64%
    18:00 +29°C° 0 mm 4 m/s 752 mmHg 71%
    19:00 +27°C° 0 mm 4 m/s 753 mmHg 79%
    20:00 +27°C° 0 mm 3 m/s 753 mmHg 80%
    21:00 +26°C° 0 mm 3 m/s 754 mmHg 82%
    22:00 +26°C° 0 mm 3 m/s 754 mmHg 84%
    23:00 +26°C° 0 mm 3 m/s 754 mmHg 84%
    Mostrar mais